Regional Weather Roundup
Issued by NWS

Home | Current Version | Previous Version | Graphics & Text | Print | Product List | Glossary On
Versions: 1 2 3 4 5 6 7 8 9 10 11 12 13 14 15 16 17 18 19 20 21 22 23 24 25 26 27
000
ASUS45 KSLC 232110
RWRUT

UTAH REGIONAL WEATHER ROUNDUP
NATIONAL WEATHER SERVICE SALT LAKE CITY UT
200 PM MST MON JAN 23 2017

UTZ001>011-023>025-232200-

NORTHERN UTAH

CITY           SKY/WX    TMP DP  RH WIND       PRES   REMARKS
BRIGHAM CITY     N/A     33  32  93 S12       29.42S WCI  25
DUGWAY         LGT SNOW  33  32  97 SW5       29.54  WCI  28
HILL AFB       SNOW      32  32 100 SW17      29.43R VSB 1/2 WCI  21
LOGAN          LGT SNOW  33  33 100 CALM      29.39F FOG
OGDEN          HVY SNOW  32  32 100 SW13      29.44R VSB 1/4 WCI  22
SALT LAKE CITY SNOW      33  32  96 SW9G28    29.48R VSB 1/2 WCI  25
TOOELE VALLEY  CLOUDY    37  32  81 CALM      29.49R
WENDOVER       CLOUDY    36  25  64 W14       29.50S WCI  27
HEBER CITY     LGT SNOW  34  27  75 S5        29.45R VSB 3/4 WCI  30
WEST JORDAN    CLOUDY    33  33 100 S13       29.48R VSB 1   WCI  24

$$

UTZ011>015-024>027-232200-

CENTRAL/NORTHEAST UTAH

CITY           SKY/WX    TMP DP  RH WIND       PRES   REMARKS
PROVO AIRPORT  LGT SNOW  34  30  86 S20       29.51S FOG     WCI  22
MOAB/CANYONLAN LGT RAIN  38  36  92 SW17      29.54R FOG     WCI  28
DELTA          CLOUDY    34  28  80 SW21      29.54S WCI  22
PRICE          CLOUDY    32  31  96 E7        29.46F WCI  26
RICHFIELD      MOSUNNY   39  28  65 SW18G25   29.57F WCI  30
ROOSEVELT      CLOUDY    32  28  86 SW7       29.53F WCI  26
VERNAL         LGT SNOW  32  30  92 CALM      29.49F FOG

$$

UTZ013>016-019>022-027-232200-

SOUTHERN UTAH

CITY           SKY/WX    TMP DP  RH WIND       PRES   REMARKS
BRYCE CANYON   MIX PCPN  24  16  71 SW25G39   29.60F WCI   8
CEDAR CITY     PTSUNNY   34  25  69 SW26G36   29.60F WCI  21
MILFORD        PTSUNNY   40  27  59 SW28G37   29.57F WCI  29
ST GEORGE      CLOUDY    48  28  46 W17       29.68F
HANKSVILLE     MOSUNNY   45  32  61 MISG      29.57F
KANAB          CLOUDY    37  30  75 SW14      29.71F WCI  29
BLANDING       CLOUDY    38  32  79 S17       29.67F WCI  28

$$

REGIONAL REPORTS     COLORADO/ARIZONA

CITY           SKY/WX    TMP DP  RH WIND       PRES   REMARKS
CRAIG, CO      CLOUDY    39  24  55 SW16G24   29.50F WCI  30
GRAND JUNCTION MOSUNNY   50  29  44 S23G33    29.51F
RIFLE, CO      LGT RAIN  39  34  82 N3        29.53F
MONTROSE, CO   LGT RAIN  45  27  49 SW30G37   29.60F
CORTEZ, CO     CLOUDY    37  34  89 NW5       29.70F WCI  33
COLORADO CITY  MOCLDY    41  32  70 W14       29.70F
PAGE, AZ       CLOUDY    38  31  76 S8        29.66F WCI  32
GRAND CANYON   HVY SNOW  30  29  96 SW22G39   29.68F VSB<1/4 WCI  17
KINGMAN, AZ    CLOUDY    46  30  53 SW24      29.74F
FLAGSTAFF, AZ  SNOW      30  29  96 SW22G32   29.70F VSB 1/2 WCI  17

$$

REGIONAL REPORTS    NEVADA/IDAHO/WYOMING

CITY           SKY/WX    TMP DP  RH WIND       PRES   REMARKS
LAS VEGAS, NV  CLOUDY    50  30  46 SW20G33   29.66F
ELY, NY        CLOUDY    29  14  53 W12       29.59S WCI  19
ELKO, NV       CLOUDY    31  24  75 W18       29.58S WCI  19
POCATELLO, ID  CLOUDY    34  31  88 NE8       29.41S WCI  27
BURLEY, ID     SNOW      30  27  88 W15G25    29.46R VSB 1/4 WCI  19
FORT BRIDGER,    N/A     22  22 100 E9        29.42F WCI  12
EVANSTON, WY   CLOUDY    29  20  69 SW24      29.37F WCI  15
ROCK SPRINGS,  LGT SNOW  30  29  96 S8        29.45F VSB 3/4 WCI  22

$$




USA.gov is the U.S. government's official web portal to all federal, state and local government web resources and services.